Location: Hains Lake
(37.8540°N, 99.8578°W)
Time: 21:37:29
(UTC+00:00)

deb Explorer IX - Pass Details

Date: 24 April 2021
Orbit: 541 x 1098 km, 38.8° (Epoch: 13 May)

Event Time Altitude Azimuth Distance (km) Brightness Sun altitude
Rises 16:21:58 0° 282° (WNW) 2,842 ? 51.0°
Reaches altitude 10° 16:24:12 10° 276° (W) 1,998 ? 51.4°
Maximum altitude 16:28:37 47° 203° (SSW) 912 ? 52.1°
Drops below altitude 10° 16:33:46 10° 130° (SE) 2,315 ? 53.0°
Sets 16:36:31 0° 125° (SE) 3,344 ? 53.5°
